Regional Weather Roundup
Issued by NWS

Home | Current Version | Previous Version | Graphics & Text | Print | Product List | Glossary On
Versions: 1 2 3 4 5 6 7 8 9 10 11 12 13 14 15 16 17 18 19 20 21 22 23 24 25 26 27 28 29 30 31 32 33 34 35 36 37 38 39 40 41 42 43 44 45 46 47 48 49 50
630
ASUS45 KCYS 180410
RWRWY

WYOMING REGIONAL WEATHER ROUNDUP
NATIONAL WEATHER SERVICE CHEYENNE WY
900 PM MST SUN DEC 17 2017

NOTE:  "FAIR" INDICATES FEW OR NO CLOUDS BELOW 12,000 FEET
WITH NO SIGNIFICANT WEATHER AND/OR OBSTRUCTIONS TO VISIBILITY.

WYZ001-180500-
YELLOWSTONE NATIONAL PARK

CITY           SKY/WX    TMP DP  RH WIND       PRES   REMARKS
LK YELLOWSTONE   N/A     13  11  92 CALM      30.10F
W YELLOWSTONE  NOT AVBL

$$
WYZ002>013-054>058-071-098>099-180500-
NORTHERN WYOMING

CITY           SKY/WX    TMP DP  RH WIND       PRES   REMARKS
JACKSON        CLOUDY    20  16  84 CALM      30.14S
CODY           MOCLDY    35  18  49 NW10G16   29.91R WCI  27
GREYBULL       FAIR      16  16 100 S3        29.97S
WORLAND        FAIR      11   9  92 W3        29.96S FOG
SHERIDAN       FAIR      15  13  91 N5        29.86S WCI   8
BUFFALO        FAIR      26  13  57 SW7       29.86R WCI  18
GILLETTE       FAIR      26  15  63 SW13      29.87S WCI  15
HULETT         FAIR      30  19  64 SW13      29.86F WCI  20
NEWCASTLE      FAIR      18  18 100 N3        29.91R

$$
WYZ014>020-022>026-101>103-180500-
CENTRAL WYOMING

CITY           SKY/WX    TMP DP  RH WIND       PRES   REMARKS
BIG PINEY      FAIR      19  13  77 N13       30.07S WCI   6
PINEDALE       FAIR      19  14  79 NW17      30.06F WCI   4
DUBOIS         FAIR      28  19  69 NW16G33   29.98R WCI  17
LANDER         FAIR      23  14  68 W3        29.93R
RIVERTON       FAIR      17  14  88 SW5       29.95R WCI  10
CASPER         FAIR      28  17  63 SW22G31   29.92R WCI  14
DOUGLAS        FAIR      26  16  65 N3        29.89S

$$
WYZ021-027>030-104>119-180500-
SOUTHERN WYOMING

CITY           SKY/WX    TMP DP  RH WIND       PRES   REMARKS
EVANSTON       FAIR      18  15  88 W13       30.15R WCI   5
FORT BRIDGER   FAIR      23  17  77 W17G26    30.16R WCI   9
ROCK SPRINGS   FAIR      22  13  68 W22       30.09R WCI   6
DIXON          CLOUDY    23  17  78 E5        30.14S WCI  17
RAWLINS        FAIR      23  13  65 W12       30.05R WCI  12
LARAMIE        FAIR      25  13  60 SW26      29.93R WCI   9
CHEYENNE       FAIR      30  17  58 SW10      29.92S WCI  21
TORRINGTON     FAIR      30  13  49 CALM      29.90F
PINE BLUFFS    FAIR      19  19 100 W6        29.94F WCI  11

$$




USA.gov is the U.S. government's official web portal to all federal, state and local government web resources and services.